User: anonymous   Login
Location: Unspecified
(0.0000°N, 0.0000°E)
Time: 12:02:53
(UTC+00:00)
Language:

USA 78 - Orbit

View from above orbital plane
View from above orbital plane
View from above satellite
View from above satellite

Ground track
Ground track

The orbit data is extracted from the following two-line orbital elements,

1 21873U 92006A   18277.25230408 0.00000000  00000-0  00000-0 0    00
2 21873  13.7158  24.6282 0009741 295.5263  64.3850  0.99037914    03
Epoch (UTC): 04 October 2018 06:03:19
Eccentricity: 0.0009741
inclination: 13.7158°
perigee height: 36094 km
apogee height: 36177 km
right ascension of ascending node: 24.6282°
argument of perigee: 295.5263°
revolutions per day: 0.99037914
mean anomaly at epoch: 64.3850°
orbit number at epoch: 0

The dashed part of the orbit path shows where the satellite is in the earth's shadow,  

DLR